Location: Berry Creek
(51.8849°N, 111.7341°W)
Time: 22:10:23
(UTC-06:00)

Daily predictions for brighter satellites

Satellite Brightness Start Highest point End
(mag) Time Altitude Azimuth Time Altitude Azimuth Time Altitude Azimuth
CENTAUR R/B 4.0 22:22:14 10° NW 22:29:17 45° NNE 22:37:08 10° E
Cosmos 724 4.5 22:27:02 10° NW 22:33:03 83° SW 22:39:09 10° SE
Cosmos 1110 Rocket 4.1 22:28:18 10° NNW 22:33:30 75° ENE 22:38:40 10° SSE
Cosmos 1553 Rocket 4.4 22:31:05 10° SSE 22:36:46 44° E 22:42:30 10° NNE
Cosmos-2242 3.1 22:32:41 10° NNW 22:37:06 86° W 22:41:30 10° S
Cosmos 1437 3.0 22:34:30 10° NNW 22:37:40 67° W 22:40:48 10° S
Cosmos 1842 Rocket 4.2 22:34:06 10° N 22:38:14 41° ENE 22:42:21 10° SE
DMSP B5D2-2 4.3 22:33:30 10° NNE 22:38:42 55° E 22:43:49 10° S
Meteor 2-10 4.4 22:36:00 10° N 22:41:16 59° ENE 22:46:42 10° SSE
ARGOS 4.1 22:36:12 10° S 22:41:25 47° W 22:46:39 10° NNW
APEX 3.6 22:39:43 10° NNW 22:42:25 36° NE 22:45:28 10° ESE
Cosmos 1844 4.4 22:39:23 10° S 22:44:28 34° ESE 22:49:36 10° NE
Meteor 1-24 Rocket 3.9 22:39:14 10° S 22:45:15 78° E 22:51:17 10° NNE
IGS 5A 3.8 22:41:55 10° SSE 22:45:58 55° ENE 22:50:03 10° N
Cosmos 1269 Rocket 4.1 22:41:33 10° S 22:46:46 59° ESE 22:52:00 10° NNE
Resurs 01 Rocket 4.3 22:47:25 10° WSW 22:49:39 14° W 22:51:53 10° WNW
Cosmos 1331 Rocket 4.0 22:44:35 10° NNW 22:49:49 88° ENE 22:55:03 10° SSE
Cosmos 1844 Rocket 3.0 22:45:24 10° S 22:50:47 47° ESE 22:56:11 10° NE
Meteor 2-5 Rocket 4.2 22:45:24 10° SSW 22:51:20 70° WNW 22:57:16 10° N
Landsat 7 3.9 22:46:45 10° SSE 22:51:31 82° ENE 22:56:19 10° NNW
Cosmos 2084 4.0 22:48:05 10° WNW 22:51:44 40° SW 22:55:21 10° SSE
Cosmos 1953 Rocket 3.8 22:50:18 10° SSW 22:54:39 73° WNW 22:59:04 10° N
Cosmos 1908 3.4 22:54:34 10° NNW 22:58:25 72° W 23:02:16 10° S
Cosmos 1758 Rocket 4.4 22:56:08 10° SSW 23:00:31 55° WNW 23:04:52 10° N
NOSS 5 (C) 4.3 22:59:06 10° SW 23:02:33 85° NW 23:05:35 10° NE
USA 238 DEB 4.0 22:56:51 10° NW 23:03:55 69° SW 23:10:56 11° SSE
USA 238 4.0 22:56:58 10° NW 23:04:02 70° SW 23:11:03 11° SSE
Cosmos 2082 Rocket 3.4 23:00:30 10° NNW 23:05:47 36° NE 23:11:02 10° ESE
CZ-2C R/B 3.5 23:00:05 10° SSE 23:05:52 68° ENE 23:11:36 10° N
Cosmos 494 Rocket 4.3 23:00:50 10° S 23:05:54 51° ESE 23:11:01 10° NNE
NOSS 2-3 (D) 4.4 23:01:39 10° SW 23:06:27 70° NW 23:12:22 10° NE
Iridium 81 3.8 23:04:15 10° S 23:06:38 76° W 23:09:34 10° N
Helios 1A 3.5 23:04:07 10° S 23:08:13 56° WSW 23:12:23 10° NNW
ATLAS 3B R/B 2.7 23:03:11 10° NW 23:09:53 78° SW 23:16:10 11° SE
Terra 1.8 23:06:07 10° SSE 23:10:51 83° ENE 23:15:39 10° NNW
Cosmos 1833 Rocket 3.5 23:09:55 10° NNW 23:15:17 43° NE 23:20:38 10° ESE
Cosmos 1302 Rocket 4.1 23:10:12 10° NNW 23:15:33 85° ENE 23:20:24 12° SSE
Cosmos 1315 Rocket 4.3 23:12:22 10° SW 23:16:12 39° WNW 23:20:07 10° N
GENESIS II 4.1 23:12:40 10° SSW 23:16:33 69° SE 23:20:29 10° NE
NOSS 3-2 (A) 4.1 23:10:46 10° NW 23:18:06 81° SW 23:25:51 12° SE
Cosmos 2251 Rocket 4.2 23:14:12 10° SSE 23:19:04 37° ESE 23:23:55 10° NE
Helios 1B rocket 2.4 23:16:49 10° NNE 23:20:56 73° ESE 23:25:02 10° S
Cosmos 2263 Rocket 3.9 23:16:12 10° WSW 23:21:26 37° NW 23:26:41 10° NNE
Spot 1 4.3 23:20:14 11° S 23:24:22 72° WSW 23:28:59 10° NNW
Cosmos 1340 3.1 23:21:13 10° NNW 23:24:58 59° W 23:28:30 11° S
Cosmos 1745 Rocket 4.2 23:18:47 10° NNW 23:25:09 80° W 23:31:26 10° S
Cosmos 2221 2.7 23:22:05 10° N 23:26:25 65° ENE 23:30:02 14° SSE
Spot 4 4.4 23:22:51 13° SE 23:27:07 51° ENE 23:31:51 10° N
Iridium 67 4.3 23:26:05 10° NNE 23:27:32 22° E 23:27:56 20° ESE
Meteor 1-29 2.9 23:25:26 10° NNE 23:28:52 68° ESE 23:32:01 12° S
CZ-2C R/B 3.1 23:26:16 10° NNE 23:31:33 46° E 23:36:06 13° SSE
Cosmos 1626 3.2 23:31:05 15° SE 23:33:32 30° E 23:36:50 10° NNE
Cosmos 1455 3.8 23:30:50 10° NNE 23:33:58 24° ENE 23:36:45 12° ESE
Cosmos 1300 2.7 23:30:11 10° NNW 23:34:02 86° W 23:37:10 15° S
Cosmos 921 Rocket 4.5 23:30:17 10° NW 23:34:15 32° W 23:38:12 10° SSW
SPOT 5 4.2 23:30:12 10° SSW 23:34:54 38° W 23:39:49 10° NNW
ATLAS 2AS CENTAUR R/B 3.1 23:28:23 10° SSW 23:36:18 75° SE 23:44:26 10° NE
Cosmos 1674 3.9 23:37:16 10° SW 23:40:54 42° WNW 23:44:36 10° N
NOSS 3-2 (C) 4.0 23:33:58 10° NW 23:41:19 80° SW 23:48:40 13° SE
Timation 1 Rocket 4.3 23:35:43 10° SSW 23:41:41 85° ESE 23:47:43 10° NNE
BREEZE-M R/B 4.2 23:35:00 10° WNW 23:41:50 63° SSW 23:47:50 10° ESE
Meteor 1-21 Rocket 4.3 23:38:57 10° S 23:44:50 83° ESE 23:50:40 10° NNE
Lacrosse 5 1.8 23:40:24 10° SW 23:45:26 74° SE 23:50:31 10° ENE
